Weather reports worldwide

Advertisment
Marina Di Ginosa, Italy (16325): temperature & dewpoint: 14.06.2019 06:00:00 - 20.06.2019 06:00:00 (CEST)Marina Di Ginosa, Italy (16325): wind speed: 14.06.2019 06:00:00 - 20.06.2019 06:00:00 (CEST)Marina Di Ginosa, Italy (16325): wind direction: 14.06.2019 06:00:00 - 20.06.2019 06:00:00 (CEST)Marina Di Ginosa, Italy (16325): reduced air pressure: 14.06.2019 06:00:00 - 20.06.2019 06:00:00 (CEST)Marina Di Ginosa, Italy (16325): visibility: 14.06.2019 06:00:00 - 20.06.2019 06:00:00 (CEST)
Date & Time tt [°C] td [°C] ff [km/h] ff [kn] dd ppp [hPa] vv [km]
20.06.2019 06:00:00 - - - - - - -
20.06.2019 05:00:00 - - - - - - -
20.06.2019 04:00:00 - - - - - - -
20.06.2019 03:00:00 - - - - - - -
20.06.2019 02:00:00 - - - - - - -
20.06.2019 01:00:00 - - - - - - -
20.06.2019 00:00:00 - - - - - - -
19.06.2019 23:00:00 - - - - - - -
19.06.2019 22:00:00 - - - - - - -
19.06.2019 21:00:00 - - - - - - -
19.06.2019 20:00:00 28,0 24,7 8 4 E 1011,3 20
19.06.2019 19:00:00 29,0 25,0 4 2 - - 10
19.06.2019 18:00:00 29,0 23,0 9 5 SSE - 10
19.06.2019 17:00:00 31,2 23,3 13 7 ESE 1011,6 20
19.06.2019 16:00:00 32,0 23,0 13 7 S - 10
19.06.2019 15:00:00 - - - - - - -
19.06.2019 14:00:00 32,4 23,1 22 12 S 1012,7 20
19.06.2019 13:00:00 32,0 22,0 18 10 S - 10
19.06.2019 12:00:00 31,0 22,0 13 7 SSE - 10
19.06.2019 11:00:00 31,2 21,7 11 6 SSE 1013,0 20
19.06.2019 10:00:00 31,0 21,0 9 5 SE - 10
19.06.2019 09:00:00 29,0 20,0 9 5 WNW - 10
19.06.2019 08:00:00 24,8 20,1 11 6 WNW 1013,0 20
19.06.2019 07:00:00 - - - - - - -
19.06.2019 06:00:00 - - - - - - -
19.06.2019 05:00:00 - - - - - - -
19.06.2019 04:00:00 - - - - - - -
19.06.2019 03:00:00 - - - - - - -
19.06.2019 02:00:00 - - - - - - -
19.06.2019 01:00:00 - - - - - - -
19.06.2019 00:00:00 - - - - - - -
18.06.2019 23:00:00 - - - - - - -
18.06.2019 22:00:00 - - - - - - -
18.06.2019 21:00:00 - - - - - - -
18.06.2019 20:00:00 27,4 24,1 8 4 SE 1013,0 10
18.06.2019 19:00:00 28,0 24,0 5 3 S - 10
18.06.2019 18:00:00 28,0 24,0 8 4 ESE - 10
18.06.2019 17:00:00 29,6 24,0 8 4 N 1012,6 10
18.06.2019 16:00:00 30,0 24,0 11 6 S - 10
18.06.2019 15:00:00 32,0 24,0 16 9 S - 10
18.06.2019 14:00:00 32,8 22,9 16 9 S 1012,7 20
18.06.2019 13:00:00 32,0 23,0 15 8 S - 10
18.06.2019 12:00:00 30,0 21,0 13 7 S - 10
18.06.2019 11:00:00 32,0 21,8 15 8 SSE 1013,1 10
18.06.2019 10:00:00 31,0 23,0 15 8 SE - 10
18.06.2019 09:00:00 29,0 19,0 15 8 NW - 10
18.06.2019 08:00:00 26,4 20,5 18 10 NW 1013,2 10
18.06.2019 07:00:00 - - - - - - -
18.06.2019 06:00:00 - - - - - - -
18.06.2019 05:00:00 - - - - - - -
18.06.2019 04:00:00 - - - - - - -
18.06.2019 03:00:00 - - - - - - -
18.06.2019 02:00:00 - - - - - - -
18.06.2019 01:00:00 - - - - - - -
18.06.2019 00:00:00 - - - - - - -
17.06.2019 23:00:00 - - - - - - -
17.06.2019 22:00:00 - - - - - - -
17.06.2019 21:00:00 - - - - - - -
17.06.2019 20:00:00 28,6 25,2 5 3 E 1011,2 10
17.06.2019 19:00:00 29,0 25,0 9 5 ESE - 10
17.06.2019 18:00:00 30,0 25,0 8 4 S - 10
17.06.2019 17:00:00 31,6 24,5 18 10 SSW 1010,9 10
17.06.2019 16:00:00 32,0 25,0 16 9 S - 10
17.06.2019 15:00:00 32,0 24,0 13 7 S - 10
17.06.2019 14:00:00 32,2 24,0 21 11 SSW 1011,9 10
17.06.2019 13:00:00 32,0 23,0 22 12 SSW - 10
17.06.2019 12:00:00 33,0 23,0 15 8 S - 10
17.06.2019 11:00:00 32,0 21,8 11 6 SSE 1011,7 10
17.06.2019 10:00:00 32,0 18,0 8 4 - - 10
17.06.2019 09:00:00 29,0 19,0 8 4 W - 10
17.06.2019 08:00:00 26,2 19,4 11 6 WNW 1012,5 10
17.06.2019 07:00:00 - - - - - - -
17.06.2019 06:00:00 - - - - - - -
17.06.2019 05:00:00 - - - - - - -
17.06.2019 04:00:00 - - - - - - -
17.06.2019 03:00:00 - - - - - - -
17.06.2019 02:00:00 - - - - - - -
17.06.2019 01:00:00 - - - - - - -
17.06.2019 00:00:00 - - - - - - -
16.06.2019 23:00:00 - - - - - - -
16.06.2019 22:00:00 - - - - - - -
16.06.2019 21:00:00 - - - - - - -
16.06.2019 20:00:00 30,0 26,0 13 7 E 1011,1 10
16.06.2019 19:00:00 31,0 25,0 9 5 SSW - 10
16.06.2019 18:00:00 33,0 23,0 15 8 SSW - 10
16.06.2019 17:00:00 33,8 24,7 21 11 SSW 1010,3 10
16.06.2019 16:00:00 34,0 25,0 21 11 SSW - 10
16.06.2019 15:00:00 35,0 26,0 16 9 SSW - 10
16.06.2019 14:00:00 37,2 21,3 16 9 SE 1011,4 10
16.06.2019 13:00:00 38,0 18,0 11 6 N - 10
16.06.2019 12:00:00 37,0 17,0 11 6 - - 10
16.06.2019 11:00:00 35,8 17,5 11 6 N 1011,5 10
16.06.2019 10:00:00 33,0 18,0 18 10 WNW - 10
16.06.2019 09:00:00 31,0 19,0 15 8 WNW - 10
16.06.2019 08:00:00 27,0 18,6 11 6 W 1011,3 10
16.06.2019 07:00:00 - - - - - - -
16.06.2019 06:00:00 - - - - - - -
16.06.2019 05:00:00 - - - - - - -
16.06.2019 04:00:00 - - - - - - -
16.06.2019 03:00:00 - - - - - - -
16.06.2019 02:00:00 - - - - - - -
16.06.2019 01:00:00 - - - - - - -
16.06.2019 00:00:00 - - - - - - -
15.06.2019 23:00:00 - - - - - - -
15.06.2019 22:00:00 - - - - - - -
15.06.2019 21:00:00 - - - - - - -
15.06.2019 20:00:00 31,6 24,7 13 7 SSW 1010,3 10
15.06.2019 19:00:00 34,0 18,0 15 8 SSW - 10
15.06.2019 18:00:00 34,0 22,0 13 7 SSW - 10
15.06.2019 17:00:00 34,0 23,1 9 5 S 1011,2 10
15.06.2019 16:00:00 34,0 24,0 21 11 SSW - 10
15.06.2019 15:00:00 34,0 25,0 21 11 SSW - 10
15.06.2019 14:00:00 34,8 25,0 13 7 S 1012,2 10
15.06.2019 13:00:00 33,0 25,0 15 8 S - 10
15.06.2019 12:00:00 36,0 21,0 9 5 S - 10
15.06.2019 11:00:00 33,0 18,8 5 3 W 1013,2 10
15.06.2019 10:00:00 31,0 19,0 8 4 WNW - 10
15.06.2019 09:00:00 28,0 19,0 11 6 WNW - 10
15.06.2019 08:00:00 26,2 19,1 15 8 WNW 1013,3 10
15.06.2019 07:00:00 - - - - - - -
15.06.2019 06:00:00 - - - - - - -
15.06.2019 05:00:00 - - - - - - -
15.06.2019 04:00:00 - - - - - - -
15.06.2019 03:00:00 - - - - - - -
15.06.2019 02:00:00 - - - - - - -
15.06.2019 01:00:00 - - - - - - -
15.06.2019 00:00:00 - - - - - - -
14.06.2019 23:00:00 - - - - - - -
14.06.2019 22:00:00 - - - - - - -
14.06.2019 21:00:00 - - - - - - -
14.06.2019 20:00:00 33,6 12,6 11 6 NNE 1014,1 20
14.06.2019 19:00:00 35,0 12,0 11 6 N - 10
14.06.2019 18:00:00 37,0 12,0 13 7 N - 10
14.06.2019 17:00:00 36,4 19,8 5 3 SSE 1014,8 20
14.06.2019 16:00:00 36,0 19,0 8 4 SSE - 10
14.06.2019 15:00:00 35,0 20,0 11 6 S - 10
14.06.2019 14:00:00 34,6 20,9 9 5 S 1015,8 20
14.06.2019 13:00:00 37,0 14,0 13 7 NE - 10
14.06.2019 12:00:00 35,0 15,0 11 6 - - 10
14.06.2019 11:00:00 33,0 19,5 8 4 S 1016,4 10
14.06.2019 10:00:00 32,0 19,0 9 5 ESE - 10
14.06.2019 09:00:00 29,0 18,0 9 5 WNW - 10
14.06.2019 08:00:00 25,2 17,7 9 5 WNW 1016,2 10
14.06.2019 07:00:00 - - - - - - -
14.06.2019 06:00:00 - - - - - - -

tt = temperature
td = dewpoint
ff = wind speed
dd = wind direction
ppp = reduced air pressure
vv = visibility

Next stations